Weather Roundup
Issued by NWS

Home | Current Version | Previous Version | Text Only | Print | Product List | Glossary On
Versions: 1 2 3 4 5 6 7 8 9 10 11 12 13 14 15 16 17 18 19 20 21 22 23 24 25 26 27 28 29 30 31 32 33 34 35 36 37 38 39 40 41 42 43 44 45 46 47 48 49 50
307
NZUS93 KARX 190910
HRRWXR

CURRENT HOURLY OBSERVATIONS ACROSS
MUCH OF THE UPPER MISSISSIPPI VALLEY
NATIONAL WEATHER SERVICE LA CROSSE WI
300 AM CST SUN FEB 19 2017


...SOUTHEAST MINNESOTA...


CITY           SKY/WX    TMP DP  RH WIND       PRES   REMARKS
ROCHESTER      CLEAR     34  34 100 S6        29.90R FOG     WCI  29
ROCHESTER/MAYO FAIR      35  35  99 E6        29.90R WCI  30
WINONA         CLOUDY    30  28  93 CALM      29.94R
AUSTIN         FOG       28  28 100 CALM      29.89R VSB 1/4
ALBERT LEA     CLEAR     30  30 100 CALM      29.89R
DODGE CENTER   MOCLDY    34  34 100 CALM      29.89S FOG
PRESTON        CLEAR     38  37  95 CALM      29.91R
OWATONNA       CLEAR     32  30  93 CALM      29.89S
FARIBAULT      MOCLDY    30  28  93 CALM      29.89S FOG
$$

...ELSEWHERE IN MINNESOTA...


CITY           SKY/WX    TMP DP  RH WIND       PRES   REMARKS
MINNEAPOLIS    PTCLDY    33  29  85 CALM      29.90R
INTNL FALLS    CLOUDY    30  28  92 CALM      29.87R
DULUTH         CLOUDY    36  31  82 CALM      29.88R
RED WING       CLEAR     30  30 100 CALM      29.90S
REDWOOD FALLS  PTCLDY    38  33  82 S12       29.84S WCI  30
MANKATO          N/A     39  37  92 S6        29.88S WCI  35
WORTHINGTON    CLOUDY    40  38  93 S9        29.85S WCI  34
FAIRMONT       PTCLDY    34  33  96 S7        29.88S WCI  28
$$

...SOUTHWEST WISCONSIN...


CITY           SKY/WX    TMP DP  RH WIND       PRES   REMARKS
LA CROSSE      CLOUDY    33  29  85 SE3       29.92R
PRAIRIE DU CHI CLEAR     29  28  95 CALM      29.92R
BOSCOBEL       PTCLDY    27  25  92 CALM      29.93R FOG
LONE ROCK      CLEAR     29  27  92 CALM      29.93R
PLATTEVILLE    CLEAR     37  37 100 CALM      29.91S
FORT MC COY    CLEAR     25  24  94 CALM      29.93R
CAMP DOUGLAS   CLEAR     27  26  95 CALM      29.91R
MAUSTON-NEW LI SUNNY     30  28  93 CALM      29.90R
VIROQUA        FAIR      40  34  80 CALM      29.90S
WIS DELLS      CLEAR     32  29  90 CALM      29.91R
$$

...ELSEWHERE IN WISCONSIN...


CITY           SKY/WX    TMP DP  RH WIND       PRES   REMARKS
MILWAUKEE      PTCLDY    34  27  75 CALM      29.89R
MADISON        PTCLDY    30  29  96 CALM      29.90R
GREEN BAY      CLOUDY    40  33  76 W6        29.87R
EAU CLAIRE     CLEAR     32  31  96 SW5       29.90R WCI  27
BLACK RVR FLS  FAIR      25  25 100 CALM      29.91S
MEDFORD        CLEAR     35  32  87 W5        29.88R WCI  31
WAUSAU         CLOUDY    36  31  82 NW3       29.87R
WIS RAPIDS     PTCLDY    31  29  92 CALM      29.91R
MARSHFIELD     CLEAR     36  31  82 NW3       29.88R
RICE LAKE      CLEAR     31  30  96 CALM      29.91R
$$

...NORTHEAST IOWA...


CITY           SKY/WX    TMP DP  RH WIND       PRES   REMARKS
WATERLOO       FOG       27  26  96 CALM      29.91R VSB 1/4
DUBUQUE        CLEAR     36  32  85 CALM      29.91S
DECORAH        FOG       34  34 100 CALM      29.90R VSB 1/2
MASON CITY     FOG       30  29  96 S5        29.91R VSB 1/4 WCI  25
CHARLES CITY   CLEAR     32  32 100 S3        29.91R FOG
OELWEIN        CLEAR     37  36  93 SE5       29.91S WCI  34
$$

...ELSEWHERE IN IOWA...


CITY           SKY/WX    TMP DP  RH WIND       PRES   REMARKS
DES MOINES     CLEAR     47  37  68 SE6       29.90S
IOWA CITY      CLOUDY    32  29  88 CALM      29.94R
FORT DODGE     MOCLDY    32  28  86 CALM      29.89S VSB 1/4
MARSHALLTOWN   FOG       28  27  96 CALM      29.90R VSB 1/4
CEDAR RAPIDS   CLOUDY    33  33 100 CALM      29.91R
$$

...NORTHERN ILLINOIS...


CITY           SKY/WX    TMP DP  RH WIND       PRES   REMARKS
CHICAGO-OHARE  CLOUDY    42  36  79 W5        29.90R
CHICAGO-MIDWAY CLOUDY    41  33  73 CALM      29.90R
MOLINE         PTCLDY    31  26  82 CALM      29.92R
ROCKFORD       CLOUDY    34  31  88 CALM      29.94R
PEORIA         CLOUDY    40  35  83 CALM      29.93R
$$

NOTE: "FAIR" INDICATES FEW OR NO CLOUDS BELOW 12,000 FEET WITH NO
SIGNIFICANT WEATHER AND/OR OBSTRUCTIONS TO VISIBILITY. WIND
SPEEDS ARE IN MILES-PER-HOUR.




USA.gov is the U.S. government's official web portal to all federal, state and local government web resources and services.